YAOGAN-30 J

导读

YAOGAN-30 J是中国于2017年12月25日发射的遥感三十号系列卫星,隶属于该系列第九组组网卫星,同组还包含YAOGAN-30 G、YAOGAN-30 H两颗卫星。该卫星采用多星组网模式运行,轨道倾角约95.9度,主要任务是开展电磁环境探测及相关空间科学技术试验,服务我国国土观测、空间环境研究等领域,是中国遥感卫星组网体系的重要组成部分。

基本信息
目录编号:
43083
目录名称:
YAOGAN-30 J
国际标识:
2017-085C
轨道中心:
EARTH
卫星名称:
YAOGAN-30 J
卫星全名:
--
卫星状态:
在轨 (已飞行3136 天)
发射日期:
2017-12-25 UTC
国别 :
中国 (CN)
星等 :
--
轨道信息
数据来源 国际轨道数据 AOE轨道数据
星历时间 2026-07-27T20:34:58+0800
9小时前
查看轨道信息
2026-07-25T01:00:00+0800
3天前
查看轨道信息
半长轴 6936.094km 6936.121km
偏心率 0.0004494 0.0004139
轨道倾角 34.995° 34.995°
近地点辐角 136.985° 106.212°
升交点赤经 264.672° 281.838°
平近点角 223.121° 113.799°
近地点 554.839km 555.113km
远地点 561.075km 560.855km
周期 95.815分钟 95.815分钟
每日圈数 15.029009 15.028923
详细信息
使用方式:
暂无
2D轨道图
3D轨道图
轨道高度分析图
轨道倾角分析图
轨道综合分析图
查看轨道综合分析图